Weather History for Kirksville, MO

Change the Weather History Date:

Sunday, March 24, 2013

  Actual Average Record
Temperature  
Mean Temperature 30 °F 44 °F  
Max Temperature 32 °F 55 °F 84 °F (1929)
Min Temperature 28 °F 33 °F 2 °F (1965)
Degree Days  
Heating Degree Days 35 21  
Month to date heating degree days 803 617  
Since 1 July heating degree days 5183 5150  
Cooling Degree Days 0 0  
Month to date cooling degree days 0 0  
Year to date cooling degree days 0 0  
Moisture  
Dew Point 27 °F    
Average Humidity 89    
Maximum Humidity 92    
Minimum Humidity 85    
Precipitation  
Precipitation 0.33 in 0.07 in 1.92 in (1920)
Month to date precipitation 3.16 2.00  
Year to date precipitation 8.61 4.80  
Sea Level Pressure  
Sea Level Pressure 29.86 in    
Wind  
Wind Speed 15 mph (North)    
Max Wind Speed 24 mph    
Max Gust Speed 30 mph    
Visibility 1 miles    
Events Fog , Snow    
T = Trace of Precipitation, MM = Missing Value Source: NWS Daily Summary

Daily Weather History Graph

Daily Weather History Graph

Search for Another Location

Airport:

Trip Planner

Search our weather history database for the weather conditions in past years. The results will help you decide how hot, cold, wet, or windy it might be!

Date:

Astronomy

Mar. 24, 2013 Rise Set
Actual Time 7:06 AM CDT 7:26 PM CDT
Civil Twilight 6:39 AM CDT 7:53 PM CDT
Nautical Twilight 6:07 AM CDT 8:25 PM CDT
Astronomical Twilight 5:35 AM CDT 8:58 PM CDT
Moon 4:55 PM CDT (3/24) 5:17 AM CDT (3/24)
Length of Visible Light 13h 14m
Length of Day
12h 20m
Waxing Gibbous, 92% of the Moon is Illuminated
Mar 24
Waxing Gibbous
Mar 27
Full
Apr 2
Last Quarter
Apr 10
New
Apr 18
First Quarter

Hourly Weather History & Observations

Time (CDT) Temp. Windchill Dew Point Humidity Pressure Visibility Wind Dir Wind Speed Gust Speed Precip Events Conditions
12:53 AM 32.0 °F 21.6 °F 30.2 °F 93% 29.93 in 0.8 mi NE 15.0 mph - 0.02 in Snow Light Snow
12:55 AM 32.0 °F 21.6 °F 30.9 °F 96% 29.96 in 0.8 mi NE 15.0 mph - 0.03 in Snow Light Snow
1:06 AM 32.0 °F 21.6 °F 30.2 °F 93% 29.93 in 1.0 mi NE 15.0 mph - 0.00 in Snow Light Snow
1:55 AM 32.0 °F 21.2 °F 30.0 °F 92% 29.94 in 1.5 mi NE 16.1 mph - 0.02 in Snow Light Snow
2:26 AM 30.2 °F 17.8 °F 30.2 °F 100% 29.89 in 2.0 mi NE 19.6 mph - 0.00 in Snow Light Snow
2:53 AM 30.2 °F 18.1 °F 28.4 °F 93% 29.90 in 3.0 mi NE 18.4 mph - 0.00 in Snow Light Snow
2:55 AM 30.9 °F 19.8 °F 28.9 °F 92% 29.93 in 3.0 mi NNE 16.1 mph - 0.00 in Snow Light Snow
3:55 AM 30.0 °F 18.7 °F 28.0 °F 92% 29.91 in 4.0 mi NNE 16.1 mph - 0.00 in   Overcast
4:43 AM 30.2 °F 18.1 °F 28.4 °F 93% 29.86 in 2.5 mi NNE 18.4 mph 24.2 mph 0.01 in Snow Light Snow
4:55 AM 30.0 °F 17.5 °F 27.0 °F 88% 29.87 in 1.8 mi NNE 19.6 mph - 0.01 in Snow Light Snow
5:10 AM 28.4 °F 15.8 °F 26.6 °F 93% 29.83 in 2.5 mi NNE 18.4 mph 28.8 mph 0.00 in Snow Light Snow
5:36 AM 28.4 °F 14.7 °F 26.6 °F 93% 29.82 in 1.2 mi NNE 21.9 mph - 0.01 in Snow Light Snow
5:55 AM 28.9 °F 16.1 °F 27.0 °F 92% 29.85 in 1.0 mi NE 19.6 mph 26.5 mph 0.01 in Snow Light Snow
6:26 AM 28.4 °F 15.8 °F 26.6 °F 93% 29.81 in 1.8 mi NNE 18.4 mph 26.5 mph 0.01 in Snow Light Snow
6:28 AM 28.4 °F 16.6 °F 26.6 °F 93% 29.81 in 1.8 mi NNE 16.1 mph 26.5 mph 0.01 in Snow Light Snow
6:31 AM 28.4 °F 16.2 °F 26.6 °F 93% 29.81 in 2.0 mi NNE 17.3 mph 26.5 mph 0.01 in Snow Light Snow
6:55 AM 28.9 °F 17.3 °F 27.0 °F 92% 29.86 in 3.0 mi NNE 16.1 mph 23.0 mph 0.01 in Snow Light Snow
7:05 AM 28.4 °F 16.6 °F 26.6 °F 93% 29.81 in 2.5 mi NNE 16.1 mph - 0.00 in Snow Light Snow
7:15 AM 28.4 °F 18.5 °F 26.6 °F 93% 29.84 in 1.5 mi North 11.5 mph - 0.00 in Snow Light Snow
7:39 AM 28.4 °F 18.0 °F 26.6 °F 93% 29.85 in 0.8 mi North 12.7 mph - 0.02 in Snow Light Snow
7:47 AM 28.4 °F 18.0 °F 26.6 °F 93% 29.85 in 0.5 mi North 12.7 mph - 0.02 in Fog , Snow Snow
7:49 AM 28.4 °F 19.1 °F 26.6 °F 93% 29.85 in 0.5 mi North 10.4 mph - 0.02 in Fog , Snow Snow
7:55 AM 28.9 °F 19.2 °F 27.0 °F 92% 29.88 in 0.5 mi North 11.5 mph - 0.03 in Fog , Snow Snow
8:11 AM 28.4 °F 19.1 °F 26.6 °F 93% 29.84 in 0.2 mi North 10.4 mph - 0.01 in Fog , Snow Snow
8:20 AM 28.4 °F 18.0 °F 26.6 °F 93% 29.84 in 0.2 mi North 12.7 mph - 0.02 in Fog , Snow Snow
8:55 AM 28.9 °F 18.2 °F 27.0 °F 92% 29.86 in 0.2 mi North 13.8 mph - 0.06 in Fog , Snow Snow
9:55 AM 28.9 °F 17.3 °F 27.0 °F 92% 29.85 in 0.5 mi North 16.1 mph - 0.05 in Fog , Snow Snow
10:14 AM 28.4 °F 16.6 °F 26.6 °F 93% 29.82 in 0.5 mi North 16.1 mph 21.9 mph 0.01 in Fog , Snow Snow
10:55 AM 28.9 °F 17.3 °F 27.0 °F 92% 29.87 in 0.5 mi North 16.1 mph - 0.02 in Fog , Snow Snow
11:55 AM 30.0 °F 18.7 °F 27.0 °F 88% 29.86 in 0.5 mi North 16.1 mph - 0.03 in Fog , Snow Light Snow
12:03 PM 30.2 °F 19.3 °F 26.6 °F 86% 29.82 in 0.5 mi North 15.0 mph - 0.00 in Fog , Snow Light Snow
12:16 PM 30.2 °F 18.1 °F 26.6 °F 86% 29.81 in 0.8 mi North 18.4 mph 25.3 mph 0.00 in Snow Light Snow
12:18 PM 30.2 °F 17.4 °F 26.6 °F 86% 29.81 in 1.0 mi North 20.7 mph 26.5 mph 0.00 in Snow Light Snow
12:29 PM 30.2 °F 19.3 °F 26.6 °F 86% 29.81 in 1.2 mi North 15.0 mph - 0.00 in Snow Light Snow
12:43 PM 30.2 °F 19.3 °F 26.6 °F 86% 29.81 in 1.0 mi North 15.0 mph 24.2 mph N/A Snow Light Snow
12:55 PM 30.9 °F 18.7 °F 27.0 °F 85% 29.84 in 1.0 mi North 19.6 mph 25.3 mph 0.00 in Snow Light Snow
1:16 PM 30.2 °F 19.3 °F 26.6 °F 86% 29.80 in 0.8 mi North 15.0 mph 27.6 mph 0.00 in Snow Light Snow
1:20 PM 30.2 °F 18.5 °F 26.6 °F 86% 29.80 in 0.5 mi North 17.3 mph 27.6 mph 0.00 in Fog , Snow Light Snow
1:29 PM 30.2 °F 18.9 °F 26.6 °F 86% 29.80 in 0.5 mi North 16.1 mph 25.3 mph 0.01 in Fog , Snow Light Snow
1:39 PM 30.2 °F 17.8 °F 26.6 °F 86% 29.79 in 0.8 mi North 19.6 mph 29.9 mph 0.01 in Snow Light Snow
1:48 PM 30.2 °F 17.8 °F 26.6 °F 86% 29.79 in 1.5 mi North 19.6 mph 27.6 mph 0.01 in Snow Light Snow
1:55 PM 30.9 °F 19.8 °F 27.0 °F 85% 29.83 in 1.2 mi North 16.1 mph 26.5 mph 0.01 in Snow Light Snow
2:14 PM 30.2 °F 18.5 °F 26.6 °F 86% 29.79 in 0.8 mi North 17.3 mph 26.5 mph 0.00 in Snow Light Snow
2:21 PM 30.2 °F 19.8 °F 26.6 °F 86% 29.79 in 1.0 mi North 13.8 mph 24.2 mph 0.00 in Snow Light Snow
2:42 PM 30.2 °F 20.2 °F 26.6 °F 86% 29.80 in 0.8 mi North 12.7 mph - 0.00 in Snow Light Snow
2:55 PM 30.0 °F 20.0 °F 26.1 °F 85% 29.84 in 0.8 mi North 12.7 mph - 0.00 in Snow Light Snow
3:02 PM 30.2 °F 20.2 °F 26.6 °F 86% 29.80 in 1.2 mi North 12.7 mph - 0.00 in Snow Light Snow
3:21 PM 30.2 °F 20.2 °F 26.6 °F 86% 29.80 in 2.0 mi NNW 12.7 mph 21.9 mph 0.00 in Snow Light Snow
3:28 PM 30.2 °F 18.5 °F 24.8 °F 80% 29.80 in 1.2 mi NNW 17.3 mph 23.0 mph 0.00 in Snow Light Snow
3:42 PM 30.2 °F 18.9 °F 26.6 °F 86% 29.81 in 0.8 mi North 16.1 mph 21.9 mph 0.01 in Snow Light Snow
3:52 PM 28.4 °F 17.5 °F 26.6 °F 93% 29.81 in 0.5 mi North 13.8 mph - 0.01 in Fog , Snow Light Snow
3:55 PM 28.9 °F 18.2 °F 26.1 °F 89% 29.85 in 0.8 mi NNW 13.8 mph - 0.01 in Snow Light Snow
3:59 PM 28.4 °F 18.0 °F 26.6 °F 93% 29.81 in 0.5 mi NNW 12.7 mph - 0.00 in Fog , Snow Snow
4:18 PM 30.2 °F 18.9 °F 26.6 °F 86% 29.81 in 0.8 mi NNW 16.1 mph 24.2 mph 0.01 in Snow Light Snow
4:55 PM 28.9 °F 18.6 °F 26.1 °F 89% 29.86 in 0.8 mi NNW 12.7 mph - 0.02 in Snow Light Snow
5:00 PM 28.4 °F 18.0 °F 26.6 °F 93% 29.83 in 0.5 mi NW 12.7 mph - 0.00 in Fog , Snow Light Snow
5:24 PM 28.4 °F 17.5 °F 26.6 °F 93% 29.83 in 0.8 mi NW 13.8 mph 20.7 mph 0.00 in Snow Light Snow
5:31 PM 28.4 °F 18.0 °F 26.6 °F 93% 29.84 in 0.5 mi NW 12.7 mph - 0.01 in Fog , Snow Light Snow
5:55 PM 30.0 °F 20.0 °F 27.0 °F 88% 29.89 in 0.5 mi NW 12.7 mph 19.6 mph 0.01 in Fog , Snow Light Snow
6:06 PM 28.4 °F 19.1 °F 26.6 °F 93% 29.85 in 0.5 mi NW 10.4 mph 19.6 mph 0.01 in Fog , Snow Light Snow
6:24 PM 28.4 °F 18.0 °F 26.6 °F 93% 29.86 in 0.8 mi NW 12.7 mph - 0.01 in Snow Light Snow
6:55 PM 28.9 °F 19.8 °F 27.0 °F 92% 29.92 in 0.8 mi NW 10.4 mph 18.4 mph 0.02 in Snow Light Snow
7:02 PM 28.4 °F 18.5 °F 26.6 °F 93% 29.88 in 0.8 mi NW 11.5 mph - 0.00 in Snow Light Snow
7:10 PM 28.4 °F 18.5 °F 26.6 °F 93% 29.88 in 0.8 mi NW 11.5 mph - 0.00 in Snow Light Snow
7:40 PM 28.4 °F 19.1 °F 26.6 °F 93% 29.88 in 1.0 mi NW 10.4 mph - 0.01 in Snow Light Snow
7:55 PM 28.4 °F 17.0 °F 26.6 °F 93% 29.88 in 1.5 mi NW 15.0 mph - N/A Snow Light Snow
7:57 PM 28.4 °F 18.0 °F 26.6 °F 93% 29.89 in 1.5 mi NW 12.7 mph - 0.00 in Snow Light Snow
8:22 PM 28.4 °F 16.6 °F 26.6 °F 93% 29.89 in 2.0 mi NW 16.1 mph 23.0 mph 0.00 in Snow Light Snow
8:46 PM 28.4 °F 17.0 °F 26.6 °F 93% 29.90 in 3.0 mi NW 15.0 mph - 0.00 in Snow Light Snow
8:55 PM 28.9 °F 19.8 °F 26.1 °F 89% 29.94 in 3.0 mi NW 10.4 mph 20.7 mph 0.00 in Snow Light Snow
9:55 PM 28.9 °F 17.3 °F 26.1 °F 89% 29.96 in 4.0 mi NW 16.1 mph 20.7 mph 0.00 in Snow Light Snow
10:09 PM 28.4 °F 18.0 °F 26.6 °F 93% 29.92 in 2.0 mi NW 12.7 mph - 0.00 in Snow Light Snow
10:47 PM 28.4 °F 18.5 °F 26.6 °F 93% 29.92 in 3.0 mi NW 11.5 mph - 0.00 in   Overcast
10:55 PM 28.9 °F 19.2 °F 26.1 °F 89% 29.96 in 4.0 mi NW 11.5 mph - 0.00 in   Overcast
11:28 PM 28.4 °F 18.0 °F 26.6 °F 93% 29.92 in 2.5 mi NW 12.7 mph - N/A   Overcast
11:42 PM 28.4 °F 18.5 °F 26.6 °F 93% 29.92 in 3.0 mi NW 11.5 mph 19.6 mph N/A   Overcast
11:55 PM 28.9 °F 19.2 °F 26.1 °F 89% 29.96 in 2.5 mi NW 11.5 mph - N/A   Overcast